| time (UTC) | temp C | wind direction | speed KPH | gust KPH | rain 1hr cm | rain 24hr cm | rain mn cm | humidity % | barometer mb |
| 20260510032815 | 18 | 14 | 0.0 | 0.0 | 0.00 | 0.03 | 0.03 | 66 | 1012.9 |
| 20260510032312 | 18 | 2 | 0.0 | 0.0 | 0.00 | 0.03 | 0.03 | 66 | 1012.7 |
| 20260510031807 | 18 | 19 | 0.0 | 0.0 | 0.00 | 0.03 | 0.03 | 65 | 1012.8 |
| 20260510031304 | 18 | 19 | 0.0 | 0.0 | 0.00 | 0.03 | 0.03 | 66 | 1012.7 |
| 20260510030803 | 18 | 17 | 0.0 | 0.0 | 0.00 | 0.03 | 0.03 | 65 | 1012.5 |
| 20260510030300 | 18 | 16 | 0.0 | 0.0 | 0.00 | 0.03 | 0.03 | 63 | 1012.7 |
| 20260510025757 | 19 | 13 | 0.0 | 0.0 | 0.00 | 0.03 | 0.03 | 62 | 1012.6 |
| 20260510025255 | 19 | 17 | 0.0 | 0.0 | 0.00 | 0.03 | 0.03 | 61 | 1012.5 |
| 20260510024751 | 19 | 19 | 0.0 | 0.0 | 0.00 | 0.03 | 0.03 | 61 | 1012.3 |
| 20260510024248 | 19 | 17 | 0.0 | 0.0 | 0.00 | 0.03 | 0.03 | 62 | 1012.4 |
| 20260510023744 | 19 | 10 | 0.0 | 0.0 | 0.00 | 0.03 | 0.03 | 61 | 1012.3 |
| 20260510023241 | 20 | 9 | 0.0 | 0.0 | 0.00 | 0.03 | 0.03 | 60 | 1012.2 |
| 20260510022737 | 20 | 354 | 0.0 | 0.0 | 0.00 | 0.03 | 0.03 | 59 | 1012.1 |
| 20260510022237 | 20 | 352 | 0.0 | 0.0 | 0.00 | 0.03 | 0.03 | 59 | 1012.1 |
| 20260510021732 | 19 | 7 | 0.0 | 0.0 | 0.00 | 0.03 | 0.03 | 60 | 1011.6 |
| 20260510021230 | 20 | 14 | 0.0 | 0.0 | 0.00 | 0.03 | 0.03 | 61 | 1011.7 |
| 20260510020730 | 20 | 10 | 0.0 | 0.0 | 0.00 | 0.03 | 0.03 | 60 | 1011.6 |
| 20260510020225 | 20 | 9 | 0.0 | 0.0 | 0.00 | 0.03 | 0.03 | 58 | 1011.4 |
| 20260510015721 | 21 | 9 | 0.0 | 0.0 | 0.00 | 0.03 | 0.03 | 55 | 1011.3 |
| 20260510015218 | 21 | 358 | 0.0 | 0.0 | 0.00 | 0.03 | 0.03 | 55 | 1011.3 |
| 20260510014713 | 21 | 352 | 0.0 | 0.0 | 0.00 | 0.03 | 0.03 | 55 | 1011.1 |
| 20260510014211 | 21 | 359 | 0.0 | 0.0 | 0.00 | 0.03 | 0.03 | 54 | 1011.0 |
| 20260510013706 | 21 | 5 | 0.0 | 0.0 | 0.00 | 0.03 | 0.03 | 54 | 1010.7 |
| 20260510013202 | 21 | 0 | 0.0 | 0.0 | 0.00 | 0.03 | 0.03 | 54 | 1010.9 |
| 20260510012701 | 22 | 9 | 0.0 | 0.0 | 0.00 | 0.03 | 0.03 | 51 | 1010.7 |
| 20260510012157 | 22 | 14 | 0.0 | 0.0 | 0.00 | 0.03 | 0.03 | 49 | 1010.7 |
| 20260510011652 | 22 | 14 | 0.0 | 0.0 | 0.00 | 0.03 | 0.03 | 49 | 1010.3 |
| 20260510011148 | 23 | 14 | 0.0 | 0.0 | 0.00 | 0.03 | 0.03 | 48 | 1010.3 |
| 20260510010644 | 23 | 14 | 0.0 | 0.0 | 0.00 | 0.03 | 0.03 | 46 | 1010.3 |
| 20260510010142 | 23 | 11 | 0.0 | 0.0 | 0.00 | 0.03 | 0.03 | 44 | 1010.2 |
| 20260510005637 | 24 | 19 | 0.0 | 0.0 | 0.00 | 0.03 | 0.03 | 44 | 1010.3 |
| 20260510005135 | 24 | 30 | 0.0 | 1.6 | 0.00 | 0.03 | 0.03 | 43 | 1010.3 |
| 20260510004633 | 25 | 359 | 0.0 | 0.0 | 0.00 | 0.03 | 0.03 | 43 | 1010.1 |
| 20260510004131 | 25 | 23 | 0.0 | 1.6 | 0.00 | 0.03 | 0.03 | 41 | 1010.3 |
| 20260510003627 | 25 | 332 | 3.2 | 3.2 | 0.00 | 0.03 | 0.03 | 40 | 1010.1 |
| 20260510003123 | 25 | 257 | 3.2 | 3.2 | 0.00 | 0.03 | 0.03 | 39 | 1010.1 |
| 20260510002617 | 26 | 123 | 4.8 | 6.4 | 0.00 | 0.03 | 0.03 | 38 | 1010.2 |
| 20260510002115 | 26 | 200 | 6.4 | 9.7 | 0.00 | 0.03 | 0.03 | 38 | 1010.2 |
| 20260510001612 | 26 | 214 | 4.8 | 6.4 | 0.00 | 0.03 | 0.03 | 37 | 1010.0 |
| 20260510001111 | 26 | 179 | 3.2 | 4.8 | 0.00 | 0.03 | 0.03 | 36 | 1010.1 |
| 20260510000610 | 26 | 103 | 1.6 | 3.2 | 0.00 | 0.03 | 0.03 | 34 | 1010.1 |
| 20260510000108 | 27 | 220 | 1.6 | 3.2 | 0.00 | 0.03 | 0.03 | 35 | 1010.3 |
| 20260509235604 | 27 | 180 | 4.8 | 4.8 | 0.00 | 0.03 | 0.03 | 34 | 1010.2 |
| 20260509235101 | 27 | 188 | 4.8 | 4.8 | 0.00 | 0.03 | 0.03 | 34 | 1010.1 |
| 20260509234557 | 27 | 6 | 0.0 | 0.0 | 0.00 | 0.03 | 0.03 | 35 | 1010.3 |
| 20260509234055 | 27 | 311 | 1.6 | 1.6 | 0.00 | 0.03 | 0.03 | 34 | 1010.1 |
| 20260509233552 | 28 | 221 | 4.8 | 6.4 | 0.00 | 0.03 | 0.03 | 31 | 1010.1 |
| 20260509233050 | 28 | 6 | 1.6 | 3.2 | 0.00 | 0.03 | 0.03 | 33 | 1010.2 |
| 20260509232546 | 28 | 359 | 0.0 | 0.0 | 0.00 | 0.03 | 0.03 | 32 | 1010.2 |
| 20260509232043 | 28 | 345 | 1.6 | 1.6 | 0.00 | 0.03 | 0.03 | 32 | 1010.3 |
| 20260509231539 | 28 | 18 | 0.0 | 0.0 | 0.00 | 0.03 | 0.03 | 30 | 1010.3 |
| 20260509231037 | 28 | 318 | 1.6 | 1.6 | 0.00 | 0.03 | 0.03 | 30 | 1010.4 |
| 20260509230533 | 28 | 13 | 1.6 | 3.2 | 0.00 | 0.03 | 0.03 | 31 | 1010.3 |
| 20260509230031 | 28 | 338 | 1.6 | 1.6 | 0.00 | 0.03 | 0.03 | 28 | 1010.2 |
| 20260509225526 | 28 | 38 | 0.0 | 0.0 | 0.00 | 0.03 | 0.03 | 30 | 1010.4 |
| 20260509225022 | 28 | 27 | 1.6 | 3.2 | 0.00 | 0.03 | 0.03 | 29 | 1010.4 |
| 20260509224518 | 28 | 26 | 0.0 | 1.6 | 0.00 | 0.03 | 0.03 | 29 | 1010.3 |
| 20260509224014 | 28 | 260 | 3.2 | 3.2 | 0.00 | 0.03 | 0.03 | 30 | 1010.3 |
| 20260509223511 | 29 | 323 | 4.8 | 6.4 | 0.00 | 0.03 | 0.03 | 30 | 1010.2 |
| 20260509223010 | 28 | 34 | 1.6 | 3.2 | 0.00 | 0.03 | 0.03 | 32 | 1010.2 |
| 20260509222505 | 28 | 166 | 9.7 | 11.3 | 0.00 | 0.03 | 0.03 | 30 | 1010.5 |
| 20260509222001 | 28 | 181 | 8.0 | 11.3 | 0.00 | 0.03 | 0.03 | 30 | 1010.3 |
| 20260509221457 | 29 | 220 | 6.4 | 6.4 | 0.00 | 0.03 | 0.03 | 31 | 1010.4 |
| 20260509220953 | 29 | 294 | 3.2 | 3.2 | 0.00 | 0.03 | 0.03 | 30 | 1010.3 |
| 20260509220449 | 28 | 200 | 3.2 | 4.8 | 0.00 | 0.03 | 0.03 | 30 | 1010.5 |
| 20260509215945 | 28 | 356 | 3.2 | 3.2 | 0.00 | 0.03 | 0.03 | 33 | 1010.5 |
| 20260509215440 | 28 | 288 | 1.6 | 1.6 | 0.00 | 0.03 | 0.03 | 30 | 1010.3 |
| 20260509214938 | 29 | 294 | 3.2 | 4.8 | 0.00 | 0.03 | 0.03 | 30 | 1010.4 |
| 20260509214435 | 29 | 193 | 4.8 | 4.8 | 0.00 | 0.03 | 0.03 | 30 | 1010.3 |
| 20260509213932 | 29 | 359 | 1.6 | 3.2 | 0.00 | 0.03 | 0.03 | 30 | 1010.4 |
| 20260509213428 | 30 | 266 | 6.4 | 9.7 | 0.00 | 0.03 | 0.03 | 30 | 1010.5 |
| 20260509212926 | 28 | 328 | 1.6 | 1.6 | 0.00 | 0.03 | 0.03 | 31 | 1010.2 |
| 20260509212423 | 28 | 316 | 3.2 | 3.2 | 0.00 | 0.03 | 0.03 | 31 | 1010.5 |
| 20260509211919 | 28 | 352 | 4.8 | 6.4 | 0.00 | 0.03 | 0.03 | 29 | 1010.5 |
| 20260509211415 | 28 | 69 | 1.6 | 1.6 | 0.00 | 0.03 | 0.03 | 32 | 1010.4 |
| 20260509210911 | 28 | 161 | 3.2 | 3.2 | 0.00 | 0.03 | 0.03 | 32 | 1010.7 |
| 20260509210409 | 28 | 200 | 11.3 | 14.5 | 0.00 | 0.03 | 0.03 | 33 | 1010.9 |
| 20260509205904 | 28 | 271 | 6.4 | 9.7 | 0.00 | 0.03 | 0.03 | 34 | 1010.9 |
| 20260509205403 | 28 | 239 | 4.8 | 4.8 | 0.00 | 0.03 | 0.03 | 32 | 1010.9 |
| 20260509204900 | 28 | 354 | 4.8 | 6.4 | 0.00 | 0.03 | 0.03 | 30 | 1011.0 |
| 20260509204356 | 28 | 211 | 6.4 | 9.7 | 0.00 | 0.03 | 0.03 | 33 | 1011.0 |
| 20260509203853 | 30 | 188 | 3.2 | 4.8 | 0.00 | 0.03 | 0.03 | 32 | 1011.0 |
| 20260509203349 | 28 | 315 | 1.6 | 1.6 | 0.00 | 0.03 | 0.03 | 33 | 1011.0 |
| 20260509202847 | 28 | 238 | 3.2 | 4.8 | 0.00 | 0.03 | 0.03 | 34 | 1011.1 |
| 20260509202342 | 28 | 319 | 6.4 | 6.4 | 0.00 | 0.03 | 0.03 | 32 | 1011.2 |
| 20260509201837 | 28 | 265 | 4.8 | 6.4 | 0.00 | 0.03 | 0.03 | 34 | 1011.3 |
| 20260509201328 | 28 | 32 | 3.2 | 6.4 | 0.00 | 0.03 | 0.03 | 37 | 1011.4 |
| 20260509200825 | 28 | 331 | 9.7 | 11.3 | 0.00 | 0.03 | 0.03 | 33 | 1011.3 |
| 20260509200320 | 28 | 137 | 3.2 | 4.8 | 0.00 | 0.03 | 0.03 | 34 | 1011.4 |
| 20260509195816 | 28 | 215 | 6.4 | 9.7 | 0.00 | 0.03 | 0.03 | 34 | 1011.4 |
| 20260509195311 | 28 | 163 | 9.7 | 12.9 | 0.00 | 0.03 | 0.03 | 33 | 1011.5 |
| 20260509194811 | 28 | 11 | 3.2 | 4.8 | 0.00 | 0.03 | 0.03 | 35 | 1011.2 |
| 20260509194307 | 28 | 263 | 3.2 | 3.2 | 0.00 | 0.03 | 0.03 | 35 | 1011.6 |
| 20260509193804 | 28 | 274 | 3.2 | 3.2 | 0.00 | 0.03 | 0.03 | 32 | 1011.5 |
| 20260509193304 | 28 | 4 | 6.4 | 9.7 | 0.00 | 0.03 | 0.03 | 35 | 1011.4 |
| 20260509192800 | 28 | 347 | 3.2 | 3.2 | 0.00 | 0.03 | 0.03 | 37 | 1011.5 |
| 20260509192256 | 28 | 187 | 6.4 | 11.3 | 0.00 | 0.03 | 0.03 | 36 | 1011.5 |
| 20260509191751 | 27 | 23 | 3.2 | 4.8 | 0.00 | 0.03 | 0.03 | 38 | 1011.4 |
| 20260509191248 | 27 | 358 | 1.6 | 3.2 | 0.00 | 0.03 | 0.03 | 36 | 1011.6 |
| 20260509190743 | 27 | 2 | 1.6 | 1.6 | 0.00 | 0.03 | 0.03 | 40 | 1011.6 |
| 20260509190241 | 28 | 211 | 3.2 | 4.8 | 0.00 | 0.03 | 0.03 | 38 | 1011.6 |
| 20260509185738 | 27 | 97 | 0.0 | 1.6 | 0.00 | 0.03 | 0.03 | 39 | 1011.7 |
| 20260509185234 | 27 | 111 | 1.6 | 3.2 | 0.00 | 0.03 | 0.03 | 40 | 1011.8 |
| 20260509184732 | 27 | 312 | 3.2 | 3.2 | 0.00 | 0.03 | 0.03 | 45 | 1011.6 |
| 20260509184229 | 27 | 265 | 4.8 | 6.4 | 0.00 | 0.03 | 0.03 | 40 | 1011.9 |
| 20260509183725 | 27 | 282 | 6.4 | 6.4 | 0.00 | 0.03 | 0.03 | 41 | 1011.8 |
| 20260509183221 | 26 | 202 | 6.4 | 11.3 | 0.00 | 0.03 | 0.03 | 41 | 1011.9 |
| 20260509182716 | 27 | 225 | 6.4 | 9.7 | 0.00 | 0.03 | 0.03 | 45 | 1011.9 |
| 20260509182214 | 27 | 200 | 4.8 | 4.8 | 0.00 | 0.03 | 0.03 | 45 | 1011.8 |
| 20260509181712 | 27 | 164 | 0.0 | 1.6 | 0.00 | 0.03 | 0.03 | 47 | 1011.9 |
| 20260509181209 | 27 | 226 | 4.8 | 6.4 | 0.00 | 0.03 | 0.03 | 43 | 1012.1 |
| 20260509180706 | 26 | 169 | 1.6 | 3.2 | 0.00 | 0.03 | 0.03 | 45 | 1012.0 |
| 20260509180202 | 26 | 236 | 3.2 | 3.2 | 0.00 | 0.03 | 0.03 | 46 | 1011.8 |
| 20260509175658 | 27 | 345 | 0.0 | 0.0 | 0.00 | 0.03 | 0.03 | 44 | 1012.1 |
| 20260509175155 | 27 | 219 | 6.4 | 9.7 | 0.00 | 0.03 | 0.03 | 43 | 1012.0 |
| 20260509174651 | 26 | 87 | 3.2 | 3.2 | 0.00 | 0.03 | 0.03 | 40 | 1012.0 |
| 20260509174150 | 26 | 260 | 4.8 | 4.8 | 0.00 | 0.03 | 0.03 | 43 | 1012.1 |
| 20260509173647 | 26 | 252 | 4.8 | 6.4 | 0.00 | 0.03 | 0.03 | 41 | 1012.0 |
| 20260509173143 | 27 | 356 | 3.2 | 6.4 | 0.00 | 0.03 | 0.03 | 38 | 1012.1 |
| 20260509172639 | 26 | 133 | 0.0 | 1.6 | 0.00 | 0.03 | 0.03 | 38 | 1012.0 |
| 20260509172136 | 26 | 14 | 0.0 | 1.6 | 0.00 | 0.03 | 0.03 | 40 | 1012.2 |
| 20260509171631 | 26 | 327 | 0.0 | 0.0 | 0.00 | 0.03 | 0.03 | 39 | 1012.1 |
| 20260509171128 | 26 | 0 | 0.0 | 0.0 | 0.00 | 0.03 | 0.03 | 46 | 1012.1 |
| 20260509170625 | 26 | 9 | 0.0 | 0.0 | 0.00 | 0.03 | 0.03 | 46 | 1012.1 |
| 20260509170121 | 26 | 236 | 3.2 | 3.2 | 0.00 | 0.03 | 0.03 | 46 | 1012.0 |
| 20260509165619 | 26 | 207 | 3.2 | 4.8 | 0.00 | 0.03 | 0.03 | 43 | 1011.9 |
| 20260509165115 | 26 | 345 | 0.0 | 1.6 | 0.00 | 0.03 | 0.03 | 48 | 1012.1 |
| 20260509164611 | 26 | 293 | 3.2 | 3.2 | 0.00 | 0.03 | 0.03 | 45 | 1012.0 |
| 20260509164107 | 26 | 321 | 1.6 | 1.6 | 0.00 | 0.03 | 0.03 | 46 | 1012.2 |
| 20260509163605 | 25 | 334 | 0.0 | 1.6 | 0.00 | 0.03 | 0.03 | 47 | 1012.1 |
| 20260509163100 | 25 | 358 | 3.2 | 3.2 | 0.00 | 0.03 | 0.03 | 51 | 1012.2 |
| 20260509162557 | 25 | 14 | 1.6 | 1.6 | 0.00 | 0.03 | 0.03 | 53 | 1012.0 |
| 20260509162053 | 25 | 348 | 0.0 | 0.0 | 0.00 | 0.03 | 0.03 | 54 | 1012.1 |
| 20260509161545 | 25 | 343 | 1.6 | 3.2 | 0.00 | 0.03 | 0.03 | 53 | 1012.1 |
| 20260509161045 | 24 | 226 | 1.6 | 4.8 | 0.00 | 0.03 | 0.03 | 53 | 1012.1 |
| 20260509160541 | 24 | 185 | 6.4 | 6.4 | 0.00 | 0.03 | 0.03 | 52 | 1012.0 |
| 20260509160037 | 24 | 233 | 4.8 | 4.8 | 0.00 | 0.03 | 0.03 | 52 | 1012.1 |
| 20260509155533 | 23 | 216 | 1.6 | 3.2 | 0.00 | 0.03 | 0.03 | 56 | 1012.1 |
| 20260509155029 | 23 | 1 | 3.2 | 4.8 | 0.00 | 0.03 | 0.03 | 58 | 1012.1 |
| 20260509154525 | 23 | 358 | 0.0 | 0.0 | 0.00 | 0.03 | 0.03 | 58 | 1012.0 |
| 20260509154023 | 23 | 172 | 3.2 | 3.2 | 0.00 | 0.03 | 0.03 | 57 | 1012.0 |
| 20260509153520 | 23 | 174 | 3.2 | 3.2 | 0.00 | 0.03 | 0.03 | 59 | 1012.0 |
| 20260509153017 | 23 | 246 | 4.8 | 4.8 | 0.00 | 0.03 | 0.03 | 59 | 1012.1 |
| 20260509152512 | 22 | 85 | 1.6 | 3.2 | 0.00 | 0.03 | 0.03 | 60 | 1011.9 |
| 20260509152009 | 22 | 202 | 3.2 | 3.2 | 0.00 | 0.03 | 0.03 | 62 | 1012.1 |
| 20260509151506 | 22 | 137 | 4.8 | 6.4 | 0.00 | 0.03 | 0.03 | 63 | 1011.9 |
| 20260509151004 | 22 | 320 | 3.2 | 3.2 | 0.00 | 0.03 | 0.03 | 64 | 1012.2 |
| 20260509150501 | 22 | 15 | 1.6 | 3.2 | 0.00 | 0.03 | 0.03 | 68 | 1012.2 |
| 20260509145959 | 21 | 45 | 0.0 | 1.6 | 0.00 | 0.03 | 0.03 | 72 | 1012.0 |
| 20260509145455 | 21 | 52 | 3.2 | 3.2 | 0.00 | 0.03 | 0.03 | 68 | 1012.0 |
| 20260509144950 | 20 | 320 | 3.2 | 3.2 | 0.00 | 0.03 | 0.03 | 73 | 1012.0 |
| 20260509144447 | 20 | 343 | 1.6 | 1.6 | 0.00 | 0.03 | 0.03 | 75 | 1011.9 |
| 20260509143944 | 20 | 295 | 3.2 | 3.2 | 0.00 | 0.03 | 0.03 | 77 | 1012.0 |
| 20260509143441 | 19 | 350 | 1.6 | 1.6 | 0.00 | 0.03 | 0.03 | 78 | 1012.2 |
| 20260509142938 | 18 | 345 | 4.8 | 4.8 | 0.00 | 0.03 | 0.03 | 80 | 1012.1 |
| 20260509142434 | 18 | 346 | 3.2 | 3.2 | 0.00 | 0.03 | 0.03 | 82 | 1012.1 |
| 20260509141930 | 18 | 298 | 4.8 | 4.8 | 0.00 | 0.03 | 0.03 | 81 | 1011.9 |
| 20260509141427 | 18 | 354 | 4.8 | 6.4 | 0.00 | 0.03 | 0.03 | 84 | 1011.9 |
| 20260509140924 | 18 | 10 | 1.6 | 3.2 | 0.00 | 0.03 | 0.03 | 84 | 1011.7 |
| 20260509140420 | 18 | 350 | 4.8 | 4.8 | 0.00 | 0.03 | 0.03 | 84 | 1011.9 |
| 20260509135918 | 18 | 9 | 4.8 | 4.8 | 0.00 | 0.03 | 0.03 | 84 | 1011.8 |
| 20260509135415 | 18 | 6 | 1.6 | 1.6 | 0.00 | 0.03 | 0.03 | 86 | 1011.6 |
| 20260509134913 | 17 | 248 | 1.6 | 3.2 | 0.00 | 0.03 | 0.03 | 86 | 1011.6 |
| 20260509134410 | 17 | 336 | 0.0 | 1.6 | 0.00 | 0.03 | 0.03 | 89 | 1011.5 |
| 20260509133907 | 17 | 0 | 1.6 | 1.6 | 0.00 | 0.03 | 0.03 | 90 | 1011.6 |
| 20260509133403 | 17 | 21 | 0.0 | 0.0 | 0.00 | 0.03 | 0.03 | 92 | 1011.7 |
| 20260509132902 | 16 | 356 | 0.0 | 1.6 | 0.00 | 0.03 | 0.03 | 94 | 1011.8 |
| 20260509132400 | 16 | 230 | 1.6 | 1.6 | 0.00 | 0.03 | 0.03 | 95 | 1011.7 |
| 20260509131857 | 16 | 352 | 1.6 | 3.2 | 0.00 | 0.03 | 0.03 | 96 | 1011.7 |
| 20260509131354 | 15 | 14 | 0.0 | 1.6 | 0.00 | 0.03 | 0.03 | 97 | 1011.7 |
| 20260509130850 | 16 | 322 | 3.2 | 3.2 | 0.00 | 0.03 | 0.03 | 97 | 1011.6 |
| 20260509130345 | 15 | 18 | 0.0 | 0.0 | 0.00 | 0.03 | 0.03 | 97 | 1011.5 |
| 20260509125843 | 15 | 317 | 0.0 | 0.0 | 0.00 | 0.03 | 0.03 | 98 | 1011.7 |
| 20260509125339 | 15 | 53 | 1.6 | 1.6 | 0.00 | 0.03 | 0.03 | 98 | 1011.8 |
| 20260509124835 | 15 | 336 | 1.6 | 3.2 | 0.00 | 0.03 | 0.03 | 98 | 1011.6 |
| 20260509124332 | 15 | 30 | 3.2 | 3.2 | 0.00 | 0.03 | 0.03 | 98 | 1011.7 |
| 20260509123830 | 14 | 44 | 1.6 | 1.6 | 0.00 | 0.03 | 0.03 | 98 | 1011.4 |
| 20260509123327 | 14 | 0 | 1.6 | 3.2 | 0.00 | 0.03 | 0.03 | 98 | 1011.5 |
| 20260509122823 | 13 | 10 | 0.0 | 1.6 | 0.00 | 0.03 | 0.03 | 98 | 1011.6 |
| 20260509122320 | 13 | 348 | 0.0 | 0.0 | 0.00 | 0.03 | 0.03 | 98 | 1011.2 |
| 20260509121817 | 13 | 27 | 0.0 | 0.0 | 0.00 | 0.03 | 0.03 | 98 | 1011.5 |
| 20260509121314 | 13 | 7 | 0.0 | 0.0 | 0.00 | 0.03 | 0.03 | 98 | 1011.3 |
| 20260509120813 | 13 | 6 | 0.0 | 0.0 | 0.00 | 0.03 | 0.03 | 98 | 1011.3 |
| 20260509120310 | 13 | 6 | 0.0 | 0.0 | 0.00 | 0.03 | 0.03 | 98 | 1011.3 |
| 20260509115808 | 13 | 39 | 0.0 | 0.0 | 0.00 | 0.03 | 0.03 | 98 | 1011.0 |
| 20260509115307 | 13 | 8 | 0.0 | 0.0 | 0.00 | 0.03 | 0.03 | 98 | 1011.0 |
| 20260509114803 | 13 | 14 | 0.0 | 0.0 | 0.00 | 0.03 | 0.03 | 98 | 1011.1 |
| 20260509114301 | 13 | 2 | 0.0 | 0.0 | 0.00 | 0.03 | 0.03 | 98 | 1010.9 |
| 20260509113800 | 13 | 12 | 0.0 | 0.0 | 0.00 | 0.03 | 0.03 | 98 | 1011.1 |
| 20260509113256 | 13 | 357 | 0.0 | 0.0 | 0.00 | 0.03 | 0.03 | 98 | 1011.0 |
| 20260509112753 | 13 | 8 | 0.0 | 0.0 | 0.00 | 0.03 | 0.03 | 98 | 1010.9 |
| 20260509112250 | 12 | 356 | 0.0 | 0.0 | 0.00 | 0.03 | 0.03 | 98 | 1010.9 |
| 20260509111747 | 12 | 12 | 0.0 | 0.0 | 0.00 | 0.03 | 0.03 | 97 | 1011.2 |
| 20260509111244 | 12 | 21 | 0.0 | 0.0 | 0.00 | 0.03 | 0.03 | 97 | 1011.0 |
| 20260509110741 | 13 | 14 | 0.0 | 0.0 | 0.00 | 0.03 | 0.03 | 97 | 1010.9 |
| 20260509110238 | 13 | 335 | 1.6 | 1.6 | 0.00 | 0.03 | 0.03 | 98 | 1011.0 |
| 20260509105736 | 13 | 4 | 0.0 | 0.0 | 0.00 | 0.03 | 0.03 | 97 | 1010.6 |
| 20260509105233 | 13 | 8 | 0.0 | 0.0 | 0.00 | 0.03 | 0.03 | 97 | 1010.9 |
| 20260509104730 | 13 | 7 | 0.0 | 0.0 | 0.00 | 0.03 | 0.03 | 97 | 1010.7 |
| 20260509104227 | 13 | 18 | 0.0 | 0.0 | 0.00 | 0.03 | 0.03 | 97 | 1010.9 |
| 20260509103725 | 13 | 3 | 0.0 | 0.0 | 0.00 | 0.03 | 0.03 | 97 | 1010.7 |
| 20260509103222 | 13 | 359 | 0.0 | 0.0 | 0.00 | 0.03 | 0.03 | 97 | 1010.7 |
| 20260509102720 | 13 | 254 | 1.6 | 3.2 | 0.00 | 0.03 | 0.03 | 97 | 1010.9 |
| 20260509102217 | 13 | 1 | 1.6 | 3.2 | 0.00 | 0.03 | 0.03 | 97 | 1011.0 |
| 20260509101714 | 13 | 344 | 1.6 | 1.6 | 0.00 | 0.03 | 0.03 | 97 | 1010.7 |
| 20260509101210 | 13 | 242 | 4.8 | 4.8 | 0.18 | 0.03 | 0.03 | 97 | 1010.9 |
| 20260509100708 | 13 | 36 | 3.2 | 3.2 | 0.18 | 0.03 | 0.03 | 97 | 1010.6 |
| 20260509100204 | 13 | 33 | 1.6 | 1.6 | 0.00 | 0.00 | 0.00 | 97 | 1011.0 |
| 20260509095701 | 13 | 70 | 4.8 | 6.4 | 0.00 | 0.00 | 0.00 | 97 | 1010.6 |
| 20260509095158 | 13 | 147 | 3.2 | 4.8 | 0.00 | 0.00 | 0.00 | 97 | 1010.9 |
| 20260509094655 | 13 | 24 | 1.6 | 1.6 | 0.00 | 0.00 | 0.00 | 97 | 1011.0 |
| 20260509094152 | 13 | 64 | 1.6 | 1.6 | 0.00 | 0.00 | 0.00 | 97 | 1010.7 |
| 20260509093650 | 13 | 237 | 3.2 | 3.2 | 0.00 | 0.00 | 0.00 | 97 | 1011.0 |
| 20260509093147 | 13 | 349 | 0.0 | 0.0 | 0.00 | 0.00 | 0.00 | 96 | 1011.1 |
| 20260509092645 | 13 | 331 | 3.2 | 3.2 | 0.00 | 0.00 | 0.00 | 97 | 1011.1 |
| 20260509092143 | 13 | 199 | 1.6 | 3.2 | 0.00 | 0.00 | 0.00 | 96 | 1011.2 |
| 20260509091641 | 13 | 206 | 3.2 | 3.2 | 0.00 | 0.00 | 0.00 | 96 | 1011.2 |
| 20260509091137 | 13 | 28 | 1.6 | 3.2 | 0.00 | 0.00 | 0.00 | 96 | 1011.2 |
| 20260509090635 | 13 | 3 | 1.6 | 3.2 | 0.00 | 0.00 | 0.00 | 96 | 1011.3 |
| 20260509090132 | 13 | 10 | 0.0 | 0.0 | 0.00 | 0.00 | 0.00 | 96 | 1011.1 |
| 20260509085629 | 13 | 359 | 1.6 | 1.6 | 0.00 | 0.00 | 0.00 | 96 | 1011.2 |
| 20260509085125 | 13 | 224 | 3.2 | 3.2 | 0.00 | 0.00 | 0.00 | 96 | 1011.2 |
| 20260509084623 | 13 | 340 | 1.6 | 1.6 | 0.00 | 0.00 | 0.00 | 96 | 1011.2 |
| 20260509084119 | 13 | 32 | 1.6 | 1.6 | 0.00 | 0.00 | 0.00 | 96 | 1011.0 |
| 20260509083617 | 13 | 216 | 6.4 | 6.4 | 0.00 | 0.00 | 0.00 | 96 | 1011.0 |
| 20260509083113 | 13 | 328 | 0.0 | 0.0 | 0.00 | 0.00 | 0.00 | 96 | 1010.9 |
| 20260509082611 | 13 | 314 | 0.0 | 0.0 | 0.00 | 0.00 | 0.00 | 96 | 1010.9 |
| 20260509082107 | 13 | 310 | 0.0 | 0.0 | 0.00 | 0.00 | 0.00 | 95 | 1010.6 |
| 20260509081605 | 13 | 27 | 0.0 | 0.0 | 0.00 | 0.00 | 0.00 | 95 | 1010.5 |
| 20260509081101 | 13 | 28 | 0.0 | 0.0 | 0.00 | 0.00 | 0.00 | 95 | 1010.6 |
| 20260509080600 | 13 | 46 | 0.0 | 1.6 | 0.00 | 0.00 | 0.00 | 95 | 1010.6 |
| 20260509080057 | 13 | 33 | 0.0 | 0.0 | 0.00 | 0.00 | 0.00 | 95 | 1010.4 |
| 20260509075555 | 13 | 18 | 0.0 | 0.0 | 0.00 | 0.00 | 0.00 | 95 | 1010.5 |
| 20260509075053 | 13 | 26 | 0.0 | 0.0 | 0.00 | 0.00 | 0.00 | 95 | 1010.9 |
| 20260509074549 | 13 | 29 | 0.0 | 0.0 | 0.00 | 0.00 | 0.00 | 94 | 1010.6 |
| 20260509074046 | 13 | 40 | 0.0 | 0.0 | 0.00 | 0.00 | 0.00 | 94 | 1010.7 |
| 20260509073542 | 13 | 354 | 0.0 | 0.0 | 0.00 | 0.00 | 0.00 | 94 | 1011.0 |
| 20260509073039 | 14 | 2 | 0.0 | 0.0 | 0.00 | 0.00 | 0.00 | 94 | 1011.1 |
| 20260509072535 | 14 | 12 | 0.0 | 1.6 | 0.00 | 0.00 | 0.00 | 94 | 1011.3 |
| 20260509072032 | 14 | 348 | 0.0 | 0.0 | 0.00 | 0.00 | 0.00 | 94 | 1011.0 |
| 20260509071529 | 14 | 1 | 0.0 | 0.0 | 0.00 | 0.00 | 0.00 | 93 | 1011.2 |
| 20260509071026 | 14 | 232 | 4.8 | 4.8 | 0.00 | 0.00 | 0.00 | 93 | 1011.0 |
| 20260509070524 | 14 | 354 | 1.6 | 1.6 | 0.00 | 0.00 | 0.00 | 93 | 1010.9 |
| 20260509070020 | 14 | 248 | 3.2 | 3.2 | 0.00 | 0.00 | 0.00 | 93 | 1011.2 |
| 20260509065515 | 14 | 212 | 6.4 | 6.4 | 0.00 | 0.00 | 0.00 | 93 | 1011.1 |
| 20260509065011 | 14 | 316 | 1.6 | 1.6 | 0.00 | 0.00 | 0.00 | 93 | 1011.2 |
| 20260509064509 | 14 | 216 | 3.2 | 6.4 | 0.00 | 0.00 | 0.00 | 93 | 1011.1 |
| 20260509064007 | 14 | 171 | 3.2 | 3.2 | 0.00 | 0.00 | 0.00 | 93 | 1011.0 |
| 20260509063502 | 14 | 250 | 3.2 | 4.8 | 0.00 | 0.00 | 0.00 | 94 | 1011.2 |
| 20260509063000 | 14 | 5 | 0.0 | 1.6 | 0.00 | 0.00 | 0.00 | 94 | 1011.1 |
| 20260509062457 | 14 | 118 | 1.6 | 1.6 | 0.00 | 0.00 | 0.00 | 94 | 1011.1 |
| 20260509061955 | 14 | 248 | 1.6 | 1.6 | 0.00 | 0.00 | 0.00 | 95 | 1011.1 |
| 20260509061451 | 14 | 292 | 1.6 | 3.2 | 0.00 | 0.00 | 0.00 | 95 | 1011.0 |
| 20260509060949 | 14 | 100 | 3.2 | 3.2 | 0.00 | 0.00 | 0.00 | 95 | 1011.0 |
| 20260509060446 | 14 | 61 | 3.2 | 3.2 | 0.00 | 0.00 | 0.00 | 96 | 1011.0 |
| 20260509055942 | 13 | 168 | 1.6 | 1.6 | 0.00 | 0.00 | 0.00 | 96 | 1011.1 |
| 20260509055437 | 13 | 107 | 1.6 | 1.6 | 0.00 | 0.00 | 0.00 | 96 | 1011.1 |
| 20260509054933 | 13 | 10 | 0.0 | 0.0 | 0.00 | 0.00 | 0.00 | 95 | 1011.1 |
| 20260509054430 | 13 | 29 | 0.0 | 0.0 | 0.00 | 0.00 | 0.00 | 95 | 1011.1 |
| 20260509053929 | 13 | 33 | 0.0 | 0.0 | 0.00 | 0.00 | 0.00 | 95 | 1011.2 |
| 20260509053426 | 13 | 19 | 0.0 | 0.0 | 0.00 | 0.00 | 0.00 | 95 | 1011.1 |
| 20260509052923 | 13 | 26 | 0.0 | 0.0 | 0.00 | 0.00 | 0.00 | 94 | 1011.1 |
| 20260509052421 | 13 | 4 | 0.0 | 0.0 | 0.00 | 0.00 | 0.00 | 94 | 1011.4 |
| 20260509051919 | 13 | 14 | 0.0 | 0.0 | 0.00 | 0.00 | 0.00 | 94 | 1011.5 |
| 20260509051416 | 13 | 8 | 0.0 | 0.0 | 0.00 | 0.00 | 0.00 | 93 | 1011.4 |
| 20260509050913 | 13 | 13 | 0.0 | 0.0 | 0.00 | 0.00 | 0.00 | 93 | 1011.6 |
| 20260509050410 | 13 | 8 | 0.0 | 0.0 | 0.00 | 0.00 | 0.00 | 93 | 1011.6 |
| 20260509045907 | 13 | 15 | 0.0 | 0.0 | 0.00 | 0.00 | 0.00 | 93 | 1011.4 |
| 20260509045403 | 14 | 10 | 0.0 | 0.0 | 0.00 | 0.00 | 0.00 | 93 | 1011.4 |
| 20260509044901 | 14 | 11 | 0.0 | 0.0 | 0.00 | 0.00 | 0.00 | 93 | 1011.5 |
| 20260509044358 | 14 | 8 | 0.0 | 0.0 | 0.00 | 0.00 | 0.00 | 92 | 1011.3 |
| 20260509043855 | 14 | 29 | 0.0 | 0.0 | 0.00 | 0.00 | 0.00 | 92 | 1011.4 |
| 20260509043351 | 14 | 24 | 0.0 | 0.0 | 0.00 | 0.00 | 0.00 | 92 | 1011.5 |
| 20260509042847 | 14 | 83 | 0.0 | 0.0 | 0.00 | 0.00 | 0.00 | 92 | 1011.3 |
| 20260509042343 | 15 | 2 | 0.0 | 0.0 | 0.00 | 0.00 | 0.00 | 92 | 1011.5 |
| 20260509041840 | 15 | 318 | 0.0 | 0.0 | 0.00 | 0.00 | 0.00 | 92 | 1011.4 |
| 20260509041337 | 15 | 19 | 0.0 | 0.0 | 0.00 | 0.00 | 0.00 | 91 | 1011.4 |
| 20260509040835 | 15 | 0 | 0.0 | 0.0 | 0.00 | 0.00 | 0.00 | 91 | 1011.4 |
| 20260509040333 | 15 | 8 | 0.0 | 0.0 | 0.00 | 0.00 | 0.00 | 90 | 1011.5 |
| 20260509035829 | 15 | 0 | 0.0 | 0.0 | 0.00 | 0.00 | 0.00 | 90 | 1011.3 |
| 20260509035327 | 15 | 359 | 0.0 | 0.0 | 0.00 | 0.00 | 0.00 | 90 | 1011.1 |
| 20260509034822 | 15 | 12 | 0.0 | 0.0 | 0.00 | 0.00 | 0.00 | 89 | 1011.1 |
| 20260509034321 | 15 | 34 | 0.0 | 0.0 | 0.00 | 0.00 | 0.00 | 89 | 1010.9 |
| 20260509033817 | 15 | 14 | 0.0 | 0.0 | 0.00 | 0.00 | 0.00 | 88 | 1010.7 |
| 20260509033315 | 15 | 4 | 0.0 | 0.0 | 0.00 | 0.00 | 0.00 | 88 | 1011.0 |